Regional Weather Roundup
Issued by NWS

Home | Current Version | Previous Version | Text Only | Print | Product List | Glossary Off
Versions: 1 2 3 4 5 6 7 8 9 10 11 12 13 14 15 16 17 18 19 20 21 22 23 24 25 26 27 28 29 30 31 32 33 34 35 36 37 38 39 40 41 42 43 44 45 46 47 48 49 50

070
ASUS43 KBIS 190002
RWRND

NORTH DAKOTA REGIONAL WEATHER ROUNDUP
NATIONAL WEATHER SERVICE BISMARCK ND
600 PM CST WED JAN 18 2017

NOTE: "FAIR" INDICATES FEW OR NO CLOUDS BELOW 12,000 FEET WITH NO
SIGNIFICANT WEATHER AND/OR OBSTRUCTIONS TO VISIBILITY.


NDZ001>003-009>011-017-190100-
NORTHWEST NORTH DAKOTA

CITY           SKY/WX    TMP DP  RH WIND       PRES   REMARKS
WILLISTON      FAIR      31  24  75 SW6       29.57S
6HR MIN TEMP:  31; 6HR MAX TEMP:  42;

MINOT          FAIR      40  28  62 S12       29.55S
MINOT AFB      CLEAR     38  29  70 SW15      29.53S
$$

NDZ018>021-031>035-040>046-190100-
SOUTHWEST NORTH DAKOTA

CITY           SKY/WX    TMP DP  RH WIND       PRES   REMARKS
BISMARCK       FAIR      27  21  78 E5        29.66S
6HR MIN TEMP:  25; 6HR MAX TEMP:  33;

DICKINSON      FAIR      40  25  55 W14G20    29.60R
GARRISON         N/A     28  23  81 S9        29.59F WCI  19
6HR MIN TEMP:  28; 6HR MAX TEMP:  37;

HETTINGER ARPT CLOUDY    33  24  69 NW3       29.64S
$$

NDZ004>008-012>016-024-026-027-054-190100-
NORTHEAST NORTH DAKOTA

CITY           SKY/WX    TMP DP  RH WIND       PRES   REMARKS
GRAND FORKS    CLOUDY    29  22  75 SE13      29.67S WCI  19
GRND FRKS AFB  CLEAR     30  25  81 S7        29.67R
DEVILS LAKE    FAIR      34  27  75 SE3       29.62S
$$

NDZ022-023-025-028>030-036>039-047>053-190100-
SOUTHEAST NORTH DAKOTA

CITY           SKY/WX    TMP DP  RH WIND       PRES   REMARKS
FARGO          CLEAR     34  26  72 S12       29.72F
6HR MIN TEMP:  31; 6HR MAX TEMP:  36;

JAMESTOWN      FAIR      30  26  85 S3        29.65F
$$





USA.gov is the U.S. government's official web portal to all federal, state and local government web resources and services.